When you browse on this site, cookies collect data to enhance your experience and personalize the content and advertising you see.
Visit our Privacy Policy to learn more. By continuing to use the site, you agree to this use of cookies and data.
  • en Suisse
  • Liste des pays
  • À 7 jours
  • Température de l'eau
  • Carte météo
  • Widgets météo
  • user-avatar
    Se connecter

    Météo par heure à Thimphou

    Ce jour, 29 Mai, Vendredi

    Heure Température Précipitation Vent Pression Humidité
    00:00 +7°C° 0 mm 1 m/s 523 mmHg 87%
    01:00 +7°C° 0 mm 1 m/s 523 mmHg 86%
    02:00 +6°C° 0 mm 1 m/s 522 mmHg 86%
    03:00 +6°C° 0 mm 1 m/s 522 mmHg 86%
    04:00 +7°C° 0 mm 1 m/s 522 mmHg 85%
    05:00 +7°C° 0 mm 1 m/s 523 mmHg 84%
    06:00 +7°C° 0 mm 1 m/s 523 mmHg 84%
    07:00 +10°C° 0 mm 1 m/s 525 mmHg 77%
    08:00 +12°C° 0 mm 1 m/s 526 mmHg 70%
    09:00 +15°C° 0 mm 1 m/s 528 mmHg 63%
    10:00 +15°C° 0.5 mm 2 m/s 528 mmHg 64%
    11:00 +16°C° 0.5 mm 2 m/s 528 mmHg 64%
    12:00 +16°C° 0.5 mm 3 m/s 527 mmHg 65%
    13:00 +16°C° 1 mm 2 m/s 527 mmHg 69%
    14:00 +15°C° 1 mm 2 m/s 526 mmHg 73%
    15:00 +14°C° 1 mm 2 m/s 525 mmHg 77%
    16:00 +14°C° 0.7 mm 1 m/s 524 mmHg 81%
    17:00 +13°C° 0.7 mm 1 m/s 523 mmHg 85%
    18:00 +12°C° 0.7 mm 1 m/s 523 mmHg 89%
    19:00 +11°C° 0.1 mm 1 m/s 523 mmHg 91%
    20:00 +10°C° 0.1 mm 1 m/s 523 mmHg 93%
    21:00 +8°C° 0.1 mm 0 m/s 523 mmHg 95%
    22:00 +8°C° 0.1 mm 0 m/s 523 mmHg 94%
    23:00 +8°C° 0.1 mm 0 m/s 523 mmHg 94%

    Demain, 30 Mai, Samedi

    Heure Température Précipitation Vent Pression Humidité
    00:00 +8°C° 0.1 mm 0 m/s 524 mmHg 94%
    01:00 +8°C° 0.7 mm 0 m/s 524 mmHg 94%
    02:00 +8°C° 0.7 mm 0 m/s 523 mmHg 95%
    03:00 +8°C° 0.7 mm 0 m/s 523 mmHg 96%
    04:00 +8°C° 0.6 mm 0 m/s 523 mmHg 96%
    05:00 +8°C° 0.6 mm 0 m/s 524 mmHg 96%
    06:00 +8°C° 0.6 mm 0 m/s 524 mmHg 96%
    07:00 +9°C° 0.2 mm 1 m/s 524 mmHg 92%
    08:00 +10°C° 0.2 mm 1 m/s 525 mmHg 89%
    09:00 +11°C° 0.2 mm 1 m/s 526 mmHg 86%
    10:00 +12°C° 0.5 mm 1 m/s 526 mmHg 84%
    11:00 +13°C° 0.5 mm 2 m/s 526 mmHg 82%
    12:00 +14°C° 0.5 mm 2 m/s 526 mmHg 80%
    13:00 +13°C° 0.7 mm 2 m/s 526 mmHg 82%
    14:00 +13°C° 0.7 mm 2 m/s 525 mmHg 84%
    15:00 +13°C° 0.7 mm 2 m/s 525 mmHg 86%
    16:00 +12°C° 0.5 mm 2 m/s 524 mmHg 88%
    17:00 +12°C° 0.5 mm 1 m/s 524 mmHg 90%
    18:00 +11°C° 0.5 mm 1 m/s 523 mmHg 93%
    19:00 +10°C° 0.1 mm 1 m/s 524 mmHg 94%
    20:00 +9°C° 0.1 mm 0 m/s 524 mmHg 96%
    21:00 +8°C° 0.1 mm 0 m/s 524 mmHg 97%
    22:00 +8°C° 0.1 mm 0 m/s 524 mmHg 97%
    23:00 +8°C° 0.1 mm 0 m/s 524 mmHg 97%

    Après-demain, 31 Mai, Dimanche

    Heure Température Précipitation Vent Pression Humidité
    00:00 +8°C° 0.1 mm 0 m/s 524 mmHg 97%
    01:00 +8°C° 0.2 mm 0 m/s 524 mmHg 96%
    02:00 +8°C° 0.2 mm 0 m/s 524 mmHg 96%
    03:00 +8°C° 0.2 mm 0 m/s 524 mmHg 96%
    04:00 +8°C° 0.1 mm 0 m/s 524 mmHg 95%
    05:00 +8°C° 0.1 mm 0 m/s 524 mmHg 94%
    06:00 +8°C° 0.1 mm 0 m/s 525 mmHg 93%
    07:00 +9°C° 0.1 mm 0 m/s 526 mmHg 89%
    08:00 +12°C° 0.1 mm 1 m/s 527 mmHg 84%
    09:00 +13°C° 0.1 mm 1 m/s 528 mmHg 80%
    10:00 +14°C° 0.7 mm 2 m/s 528 mmHg 79%
    11:00 +14°C° 0.7 mm 2 m/s 528 mmHg 78%
    12:00 +15°C° 0.7 mm 2 m/s 528 mmHg 78%
    13:00 +15°C° 0.8 mm 2 m/s 527 mmHg 79%
    14:00 +15°C° 0.8 mm 2 m/s 526 mmHg 81%
    15:00 +14°C° 0.8 mm 2 m/s 526 mmHg 82%
    16:00 +14°C° 0.6 mm 2 m/s 525 mmHg 85%
    17:00 +13°C° 0.6 mm 1 m/s 525 mmHg 88%
    18:00 +12°C° 0.6 mm 1 m/s 524 mmHg 92%
    19:00 +11°C° 0.2 mm 1 m/s 524 mmHg 93%
    20:00 +9°C° 0.2 mm 0 m/s 524 mmHg 94%
    21:00 +8°C° 0.2 mm 0 m/s 524 mmHg 96%
    22:00 +8°C° 0.1 mm 0 m/s 524 mmHg 96%
    23:00 +8°C° 0.1 mm 0 m/s 524 mmHg 96%

    1 Juin, Lundi

    Heure Température Précipitation Vent Pression Humidité
    00:00 +8°C° 0.1 mm 0 m/s 524 mmHg 96%
    01:00 +8°C° 0.1 mm 0 m/s 524 mmHg 95%
    02:00 +8°C° 0.1 mm 0 m/s 523 mmHg 94%
    03:00 +7°C° 0.1 mm 0 m/s 523 mmHg 93%
    04:00 +7°C° 0 mm 0 m/s 523 mmHg 92%
    05:00 +8°C° 0 mm 0 m/s 524 mmHg 91%
    06:00 +8°C° 0 mm 0 m/s 524 mmHg 90%
    07:00 +10°C° 0.1 mm 0 m/s 525 mmHg 86%
    08:00 +12°C° 0.1 mm 1 m/s 526 mmHg 83%
    09:00 +14°C° 0.1 mm 1 m/s 527 mmHg 79%
    10:00 +15°C° 0.3 mm 1 m/s 527 mmHg 76%
    11:00 +16°C° 0.3 mm 2 m/s 528 mmHg 72%
    12:00 +17°C° 0.3 mm 2 m/s 528 mmHg 68%
    13:00 +17°C° 0.6 mm 2 m/s 527 mmHg 71%
    14:00 +16°C° 0.6 mm 2 m/s 527 mmHg 74%
    15:00 +16°C° 0.6 mm 2 m/s 526 mmHg 77%
    16:00 +15°C° 0.5 mm 2 m/s 525 mmHg 81%
    17:00 +14°C° 0.5 mm 2 m/s 525 mmHg 85%
    18:00 +13°C° 0.5 mm 1 m/s 524 mmHg 88%
    19:00 +12°C° 0.2 mm 1 m/s 524 mmHg 91%
    20:00 +11°C° 0.2 mm 1 m/s 523 mmHg 94%
    21:00 +10°C° 0.2 mm 1 m/s 523 mmHg 96%
    22:00 +10°C° 0.1 mm 1 m/s 523 mmHg 95%
    23:00 +9°C° 0.1 mm 1 m/s 523 mmHg 94%

    2 Juin, Mardi

    Heure Température Précipitation Vent Pression Humidité
    00:00 +9°C° 0.1 mm 1 m/s 523 mmHg 93%
    01:00 +9°C° 0.1 mm 1 m/s 522 mmHg 93%
    02:00 +9°C° 0.1 mm 1 m/s 522 mmHg 92%
    03:00 +9°C° 0.1 mm 1 m/s 522 mmHg 92%
    04:00 +9°C° 0.1 mm 1 m/s 522 mmHg 92%
    05:00 +9°C° 0.1 mm 1 m/s 523 mmHg 92%
    06:00 +9°C° 0.1 mm 1 m/s 523 mmHg 91%
    07:00 +12°C° 0.1 mm 1 m/s 524 mmHg 85%
    08:00 +14°C° 0.1 mm 1 m/s 526 mmHg 78%
    09:00 +16°C° 0.1 mm 1 m/s 527 mmHg 71%
    10:00 +16°C° 0.6 mm 2 m/s 527 mmHg 71%
    11:00 +17°C° 0.6 mm 2 m/s 527 mmHg 72%
    12:00 +17°C° 0.6 mm 2 m/s 527 mmHg 72%
    13:00 +17°C° 1 mm 2 m/s 526 mmHg 74%
    14:00 +16°C° 1 mm 2 m/s 526 mmHg 75%
    15:00 +16°C° 1 mm 2 m/s 525 mmHg 76%
    16:00 +15°C° 0.5 mm 2 m/s 525 mmHg 80%
    17:00 +15°C° 0.5 mm 2 m/s 524 mmHg 84%
    18:00 +14°C° 0.5 mm 2 m/s 523 mmHg 87%
    19:00 +12°C° 0.1 mm 1 m/s 523 mmHg 90%
    20:00 +11°C° 0.1 mm 1 m/s 523 mmHg 93%
    21:00 +10°C° 0.1 mm 1 m/s 522 mmHg 96%
    22:00 +10°C° 0 mm 1 m/s 522 mmHg 95%
    23:00 +10°C° 0 mm 1 m/s 522 mmHg 93%

    3 Juin, Mercredi

    Heure Température Précipitation Vent Pression Humidité
    00:00 +10°C° 0 mm 1 m/s 522 mmHg 92%
    01:00 +9°C° 0 mm 1 m/s 522 mmHg 92%
    02:00 +9°C° 0 mm 1 m/s 521 mmHg 91%
    03:00 +9°C° 0 mm 1 m/s 521 mmHg 91%
    04:00 +9°C° 0 mm 1 m/s 522 mmHg 90%
    05:00 +10°C° 0 mm 1 m/s 522 mmHg 89%
    06:00 +10°C° 0 mm 1 m/s 523 mmHg 88%
    07:00 +12°C° 0.1 mm 1 m/s 524 mmHg 80%
    08:00 +14°C° 0.1 mm 1 m/s 525 mmHg 73%
    09:00 +18°C° 0.1 mm 1 m/s 527 mmHg 66%
    10:00 +17°C° 0.3 mm 2 m/s 527 mmHg 65%
    11:00 +18°C° 0.3 mm 2 m/s 527 mmHg 64%
    12:00 +19°C° 0.3 mm 2 m/s 527 mmHg 64%
    13:00 +18°C° 0.9 mm 2 m/s 526 mmHg 68%
    14:00 +18°C° 0.9 mm 2 m/s 526 mmHg 72%
    15:00 +17°C° 0.9 mm 2 m/s 525 mmHg 77%
    16:00 +16°C° 0.7 mm 2 m/s 524 mmHg 81%
    17:00 +15°C° 0.7 mm 2 m/s 523 mmHg 85%
    18:00 +14°C° 0.7 mm 1 m/s 523 mmHg 90%
    19:00 +13°C° 0.1 mm 1 m/s 523 mmHg 92%
    20:00 +12°C° 0.1 mm 1 m/s 522 mmHg 94%
    21:00 +11°C° 0.1 mm 1 m/s 522 mmHg 96%
    22:00 +11°C° 0.1 mm 1 m/s 522 mmHg 96%
    23:00 +10°C° 0.1 mm 1 m/s 522 mmHg 95%
    Voir plus